Weather in Hertza

Ukraine / Chernovtci District     48°08′47″N   26°15′30″E
temp.,
°C
wind,
m/s
gust,
m/s
humid.,
%
clouds,
%
prec.,
mm/h
press.,
hPa
HPBL,
m
12 august, fri
fri1200:00+16wnw227270 0.0 101917
03:00+14wnw238344 0.0 102043
06:00+15wnw4881100 0.1 1019210
09:00+18nw5675100 0.1 1019357
12:00+21nw577497 0.8 1019666
15:00+22nnw5676100 2.3 1017579
18:00+20n388571 3.8 1017297
21:00+18n349262 5.9 101776
13 august, sat
sat1300:00+17nw229558 0.0 101729
03:00+16wnw22965 0.0 101628
06:00+16wnw2696100 0.0 1015165
09:00+17wnw4794100 0.0 1014270
12:00+21nw5579100 0.0 1013705
15:00+26nnw455997 0.1 10111374
18:00+26nnw3464100 1.6 1010770
21:00+20wnw348787 4.4 100967
14 august, sun
sun1400:00+18nw3695100 5.8 1010142
03:00+17wnw4897100 5.8 1009186
06:00+17wnw3798100 0.4 1009186
09:00+19nw5791100 0.7 1009390
12:00+24nw4567100 0.0 1009932
15:00+25nne4462100 0.0 1008947
18:00+26nnw345918 0.0 1007951
21:00+19s3690100 3.4 1008129
15 august, mon
mon1500:00+18e009070 0.2 100811
03:00+17wnw1188100 0.3 100711
06:00+17wnw1189100 0.0 100711
09:00+20wnw2280100 0.0 1007183
12:00+25wnw2260100 0.0 1007673
15:00+28n1148100 0.0 10061156
18:00+28e114823 0.0 10061180
21:00+19wsw357237 0.2 100776
16 august, tue
tue1600:00+19wsw227092 0.0 100711
03:00+18w11755 0.0 100711
06:00+17w11825 0.0 100711
09:00+22w346715 0.0 1008260
12:00+28nw12465 0.0 1007974
15:00+31nw133719 0.0 10071937
18:00+27sw545472 0.6 1007567
21:00+19ese228777 3.1 100922